SAS48P ESGG-EKCH

Flight info

Callsign SAS48P
Flight time 0h 28m
Altitude 19000
Route TOPLA L996 ERNOV
Aircraft CRJ9/M-SDFGIRWY/S

Departure

Time 2026-05-05 18:26
Airport Göteborg Landvetter Airport (ESGG)

Arrival

Time 2026-05-05 18:55
Airport Copenhagen Kastrup Airport (EKCH)
Time Latitude Longitude Altitude Speed Heading
2026-05-05 18:03 57.66936 12.29453 514 ft 0 kts 116°
2026-05-05 18:18 57.66936 12.29452 514 ft 2 kts 116°
2026-05-05 18:19 57.66946 12.29410 514 ft 4 kts 108°
2026-05-05 18:19 57.66950 12.29361 514 ft 4 kts 88°
2026-05-05 18:19 57.66943 12.29321 514 ft 4 kts 42°
2026-05-05 18:19 57.66936 12.29313 514 ft 0 kts 26°
2026-05-05 18:21 57.66949 12.29324 514 ft 6 kts 26°
2026-05-05 18:21 57.66981 12.29305 514 ft 9 kts 304°
2026-05-05 18:22 57.67015 12.29206 514 ft 10 kts 328°
2026-05-05 18:22 57.67098 12.29237 514 ft 14 kts 23°
2026-05-05 18:22 57.67185 12.29315 514 ft 14 kts 25°
2026-05-05 18:22 57.67273 12.29394 514 ft 14 kts 26°
2026-05-05 18:23 57.67361 12.29476 514 ft 14 kts 26°
2026-05-05 18:23 57.67431 12.29401 514 ft 13 kts 297°
2026-05-05 18:23 57.67460 12.29271 514 ft 6 kts 277°
2026-05-05 18:23 57.67460 12.29269 514 ft 0 kts 276°
2026-05-05 18:24 57.67460 12.29231 513 ft 9 kts 267°
2026-05-05 18:24 57.67447 12.29096 515 ft 10 kts 245°
2026-05-05 18:25 57.67396 12.28995 513 ft 9 kts 205°
2026-05-05 18:25 57.67393 12.28992 513 ft 0 kts 205°
2026-05-05 18:25 57.67389 12.28988 513 ft 1 kts 205°
2026-05-05 18:25 57.67353 12.28956 513 ft 21 kts 206°
2026-05-05 18:26 57.66990 12.28629 512 ft 98 kts 205°
2026-05-05 18:26 57.66167 12.27867 509 ft 161 kts 205°
2026-05-05 18:26 57.65075 12.26888 865 ft 184 kts 208°
2026-05-05 18:26 57.63880 12.25767 1712 ft 186 kts 209°
2026-05-05 18:27 57.62756 12.24737 2815 ft 182 kts 208°
2026-05-05 18:27 57.61518 12.23683 3300 ft 209 kts 194°
2026-05-05 18:27 57.60018 12.23526 3984 ft 222 kts 182°
2026-05-05 18:27 57.58400 12.23530 4534 ft 252 kts 182°
2026-05-05 18:28 57.54597 12.23760 6343 ft 272 kts 181°
2026-05-05 18:28 57.52703 12.23869 7434 ft 274 kts 182°
2026-05-05 18:28 57.50772 12.24022 8420 ft 280 kts 180°
2026-05-05 18:29 57.48814 12.24352 9378 ft 285 kts 178°
2026-05-05 18:29 57.46832 12.24849 10276 ft 290 kts 177°
2026-05-05 18:29 57.44826 12.25425 11026 ft 293 kts 177°
2026-05-05 18:29 57.42800 12.26021 11822 ft 296 kts 178°
2026-05-05 18:30 57.40747 12.26640 12553 ft 304 kts 179°
2026-05-05 18:30 57.38557 12.27241 12644 ft 332 kts 179°
2026-05-05 18:30 57.36200 12.27861 13103 ft 347 kts 179°
2026-05-05 18:30 57.33789 12.28495 14004 ft 352 kts 179°
2026-05-05 18:31 57.31350 12.29136 14820 ft 356 kts 179°
2026-05-05 18:31 57.28883 12.29780 15665 ft 360 kts 175°
2026-05-05 18:31 57.26384 12.30419 16509 ft 364 kts 179°
2026-05-05 18:31 57.23886 12.31069 17357 ft 369 kts 179°
2026-05-05 18:32 57.21327 12.31746 18202 ft 375 kts 179°
2026-05-05 18:32 57.18694 12.32438 18616 ft 390 kts 179°
2026-05-05 18:32 57.15967 12.33155 18810 ft 396 kts 179°
2026-05-05 18:32 57.13215 12.33882 18894 ft 404 kts 179°
2026-05-05 18:33 57.10415 12.34634 18931 ft 403 kts 179°
2026-05-05 18:33 57.07672 12.35387 18942 ft 394 kts 179°
2026-05-05 18:33 57.04975 12.36086 18943 ft 390 kts 179°
2026-05-05 18:33 57.02324 12.36742 18923 ft 388 kts 179°
2026-05-05 18:34 56.99649 12.37410 18927 ft 386 kts 179°
2026-05-05 18:34 56.96990 12.38071 18941 ft 385 kts 179°
2026-05-05 18:34 56.94344 12.38727 18942 ft 383 kts 179°
2026-05-05 18:34 56.91698 12.39379 18942 ft 382 kts 179°
2026-05-05 18:35 56.89057 12.40028 18938 ft 384 kts 179°
2026-05-05 18:35 56.86409 12.40679 18941 ft 385 kts 179°
2026-05-05 18:35 56.83747 12.41332 18944 ft 386 kts 179°
2026-05-05 18:35 56.81078 12.41990 18948 ft 387 kts 179°
2026-05-05 18:36 56.78402 12.42645 18942 ft 388 kts 179°
2026-05-05 18:36 56.75716 12.43302 18911 ft 389 kts 179°
2026-05-05 18:36 56.73030 12.43955 18929 ft 390 kts 179°
2026-05-05 18:36 56.70377 12.44605 18936 ft 390 kts 179°
2026-05-05 18:37 56.67681 12.45263 18938 ft 391 kts 179°
2026-05-05 18:37 56.64985 12.45920 18940 ft 392 kts 179°
2026-05-05 18:37 56.62279 12.46573 18941 ft 392 kts 179°
2026-05-05 18:37 56.59568 12.47230 18942 ft 393 kts 179°
2026-05-05 18:38 56.56858 12.47889 18943 ft 393 kts 179°
2026-05-05 18:38 56.54141 12.48547 18944 ft 394 kts 179°
2026-05-05 18:38 56.51419 12.49204 18858 ft 396 kts 179°
2026-05-05 18:38 56.48681 12.49859 18298 ft 394 kts 179°
2026-05-05 18:39 56.45966 12.50507 17616 ft 391 kts 178°
2026-05-05 18:39 56.43317 12.51151 16971 ft 379 kts 178°
2026-05-05 18:39 56.40732 12.51778 16321 ft 370 kts 178°
2026-05-05 18:39 56.38237 12.52368 15750 ft 364 kts 178°
2026-05-05 18:40 56.35697 12.52962 15186 ft 370 kts 178°
2026-05-05 18:40 56.33150 12.53570 14634 ft 359 kts 178°
2026-05-05 18:40 56.30721 12.54156 14102 ft 357 kts 178°
2026-05-05 18:40 56.28253 12.54742 13556 ft 358 kts 178°
2026-05-05 18:41 56.25788 12.55322 12968 ft 357 kts 177°
2026-05-05 18:41 56.23318 12.55901 12396 ft 356 kts 177°
2026-05-05 18:41 56.20867 12.56478 11834 ft 354 kts 176°
2026-05-05 18:41 56.18426 12.57055 11251 ft 352 kts 176°
2026-05-05 18:42 56.15996 12.57538 10709 ft 348 kts 180°
2026-05-05 18:42 56.13606 12.57622 10285 ft 334 kts 184°
2026-05-05 18:42 56.11348 12.57551 10088 ft 314 kts 184°
2026-05-05 18:42 56.09254 12.57484 9988 ft 297 kts 184°
2026-05-05 18:43 56.07226 12.57434 9940 ft 286 kts 184°
2026-05-05 18:43 56.05220 12.57427 9930 ft 290 kts 184°
2026-05-05 18:43 56.03210 12.57435 9932 ft 288 kts 184°
2026-05-05 18:43 56.01208 12.57456 9928 ft 287 kts 184°
2026-05-05 18:44 55.99215 12.57473 9935 ft 286 kts 184°
2026-05-05 18:44 55.97227 12.57490 9929 ft 286 kts 184°
2026-05-05 18:44 55.95244 12.57508 9939 ft 285 kts 184°
2026-05-05 18:44 55.93261 12.57528 9935 ft 285 kts 184°
2026-05-05 18:45 55.91280 12.57541 9929 ft 284 kts 184°
2026-05-05 18:45 55.89308 12.57554 9937 ft 283 kts 184°
2026-05-05 18:45 55.87340 12.57506 9941 ft 281 kts 190°
2026-05-05 18:45 55.85446 12.56781 9861 ft 279 kts 200°
2026-05-05 18:46 55.83599 12.55632 9531 ft 282 kts 204°
2026-05-05 18:46 55.81793 12.54357 9259 ft 283 kts 205°
2026-05-05 18:46 55.79960 12.53041 8968 ft 284 kts 205°
2026-05-05 18:46 55.78112 12.51762 8679 ft 284 kts 203°
2026-05-05 18:47 55.76254 12.50543 8393 ft 285 kts 202°
2026-05-05 18:47 55.74393 12.49341 8107 ft 285 kts 202°
2026-05-05 18:47 55.72532 12.48141 7829 ft 284 kts 202°
2026-05-05 18:47 55.70686 12.46967 7546 ft 279 kts 202°
2026-05-05 18:48 55.68876 12.45797 7258 ft 275 kts 201°
2026-05-05 18:48 55.67085 12.44646 6972 ft 272 kts 202°
2026-05-05 18:48 55.65319 12.43496 6674 ft 269 kts 201°
2026-05-05 18:48 55.63565 12.42366 6405 ft 267 kts 201°
2026-05-05 18:49 55.61810 12.41257 6116 ft 269 kts 200°
2026-05-05 18:49 55.60047 12.40058 5830 ft 273 kts 208°
2026-05-05 18:49 55.58466 12.38151 5583 ft 277 kts 219°
2026-05-05 18:49 55.57035 12.35892 5341 ft 280 kts 225°
2026-05-05 18:50 55.55436 12.34037 5081 ft 272 kts 196°
2026-05-05 18:50 55.53623 12.34008 4816 ft 257 kts 160°
2026-05-05 18:50 55.52137 12.35546 4545 ft 242 kts 140°
2026-05-05 18:50 55.50856 12.37396 4254 ft 234 kts 137°
2026-05-05 18:51 55.49633 12.39289 3746 ft 236 kts 134°
2026-05-05 18:51 55.48769 12.41671 3149 ft 229 kts 98°
2026-05-05 18:51 55.48918 12.44280 2745 ft 205 kts 60°
2026-05-05 18:51 55.49781 12.46038 2512 ft 182 kts 38°
2026-05-05 18:52 55.50769 12.47459 2298 ft 186 kts 37°
2026-05-05 18:52 55.51776 12.48924 2030 ft 186 kts 38°
2026-05-05 18:52 55.52735 12.50365 1776 ft 173 kts 39°
2026-05-05 18:52 55.53594 12.51684 1512 ft 154 kts 39°
2026-05-05 18:53 55.54350 12.52842 1300 ft 137 kts 39°
2026-05-05 18:53 55.55042 12.53906 1277 ft 129 kts 39°
2026-05-05 18:53 55.55719 12.54952 1033 ft 128 kts 39°
2026-05-05 18:53 55.56393 12.55992 767 ft 131 kts 39°
2026-05-05 18:54 55.57093 12.57073 605 ft 133 kts 38°
2026-05-05 18:54 55.57797 12.58144 407 ft 136 kts 37°
2026-05-05 18:54 55.58499 12.59230 263 ft 133 kts 40°
2026-05-05 18:54 55.59195 12.60315 60 ft 133 kts 39°
2026-05-05 18:55 55.59639 12.61014 17 ft 116 kts 39°
2026-05-05 18:55 55.60173 12.61828 17 ft 47 kts 40°
2026-05-05 18:55 55.60384 12.62152 15 ft 20 kts 39°
2026-05-05 18:55 55.60492 12.62269 17 ft 18 kts 26°
2026-05-05 18:56 55.60569 12.62319 18 ft 17 kts 14°
2026-05-05 18:56 55.60689 12.62364 16 ft 18 kts 11°
2026-05-05 18:56 55.60809 12.62437 17 ft 18 kts 35°
2026-05-05 18:56 55.60906 12.62583 15 ft 18 kts 41°
2026-05-05 18:57 55.61002 12.62730 15 ft 18 kts 40°
2026-05-05 18:57 55.61099 12.62878 15 ft 18 kts 40°
2026-05-05 18:57 55.61194 12.63028 17 ft 18 kts 41°
2026-05-05 18:57 55.61289 12.63177 16 ft 18 kts 41°
2026-05-05 18:58 55.61385 12.63324 16 ft 18 kts 40°
2026-05-05 18:58 55.61481 12.63473 17 ft 18 kts 41°
2026-05-05 18:58 55.61578 12.63623 15 ft 18 kts 42°
2026-05-05 18:58 55.61674 12.63772 16 ft 18 kts 41°
2026-05-05 18:59 55.61757 12.63899 17 ft 15 kts 41°
2026-05-05 18:59 55.61838 12.64024 15 ft 16 kts 41°
2026-05-05 18:59 55.61931 12.64122 17 ft 16 kts 26°
2026-05-05 18:59 55.62031 12.64206 15 ft 16 kts 25°
2026-05-05 19:00 55.62131 12.64290 17 ft 16 kts 25°
2026-05-05 19:00 55.62217 12.64364 13 ft 14 kts 25°
2026-05-05 19:00 55.62304 12.64410 15 ft 7 kts 15°
2026-05-05 19:00 55.62346 12.64430 15 ft 0 kts 15°
2026-05-05 19:03 55.62359 12.64436 15 ft 4 kts 15°
2026-05-05 19:03 55.62398 12.64454 15 ft 8 kts 15°
2026-05-05 19:03 55.62460 12.64483 15 ft 10 kts
2026-05-05 19:04 55.62527 12.64494 15 ft 8 kts 16°
2026-05-05 19:04 55.62551 12.64507 15 ft 2 kts 16°
2026-05-05 19:04 55.62559 12.64511 15 ft 0 kts 16°